Regional Weather Roundup
Issued by NWS

Home | Current Version | Previous Version | Graphics & Text | Print | Product List | Glossary Off
Versions: 1 2 3 4 5 6 7 8 9 10 11 12 13 14 15 16 17 18 19 20 21 22 23 24 25 26 27 28 29 30 31 32 33 34 35 36 37 38 39 40 41 42 43 44 45 46 47 48 49 50

000
ASUS43 KMKX 241728
RWRWI

WISCONSIN REGIONAL WEATHER ROUNDUP
NATIONAL WEATHER SERVICE MILWAUKEE/SULLIVAN WI
1200 PM CDT SUN MAY 24 2015

NOTE: "FAIR" INDICATES FEW OR NO CLOUDS BELOW 12,000 FEET WITH NO
SIGNIFICANT WEATHER AND/OR OBSTRUCTIONS TO VISIBILITY.

WIZ001-002-006>008-014>016-023>028-241800-
NORTHWEST WISCONSIN

CITY           SKY/WX    TMP DP  RH WIND       PRES   REMARKS
SUPERIOR ARPT  CLOUDY    65  45  48 NE6       30.07F
ASHLAND        CLOUDY    70  52  52 N8        30.08F
HAYWARD        CLOUDY    68  49  50 E5        30.07F
SIREN          CLOUDY    66  53  62 E3        30.05F
CUMBERLAND     CLOUDY    66  48  52 SE8       30.06F
RICE LAKE      CLOUDY    69  49  48 SE9       30.07F
CHETEK         CLOUDY    68  52  58 MISG      30.07S
LADYSMITH      CLOUDY    71  51  48 S9        30.09F
EAU CLAIRE     LGT RAIN  63  53  70 S14       30.08S
MENOMONIE      DRIZZLE   64  54  70 SE13G18   30.07S
NEW RICHMOND   CLOUDY    65  51  59 S8        30.05S
OSCEOLA        LGT RAIN  65  55  69 SE10      30.06S
$$

WIZ003>005-009-010-017-018-241800-
NORTH CENTRAL WISCONSIN

CITY           SKY/WX    TMP DP  RH WIND       PRES   REMARKS
MANITOWISH WTR CLOUDY    71  46  40 SE8       30.11F
ARBOR VITAE    CLOUDY    72  45  38 S8        30.11F
WOODRUFF       CLOUDY    72  45  38 S8        30.11F
RHINELANDER    CLOUDY    73  45  36 S8G17     30.12F
EAGLE RIVER    CLOUDY    74  40  30 SW5       30.11F
LAND O LAKES   CLOUDY    75  40  28 S8        30.12F
PHILLIPS       CLOUDY    71  47  43 SE8       30.09F
TOMAHAWK       CLOUDY    71  47  41 S3        30.11F
MEDFORD        CLOUDY    66  50  56 S13G18    30.12R
MERRILL        CLOUDY    71  49  45 S6        30.12S
$$

WIZ029-030-035-036-043>047-241800-
CENTRAL WISCONSIN

CITY           SKY/WX    TMP DP  RH WIND       PRES   REMARKS
WAUSAU         CLOUDY    67  51  56 S10       30.11R
MOSINEE        LGT RAIN  63  54  72 S13G21    30.15R
MARSHFIELD     LGT RAIN  61  55  81 S17       30.13S
STEVENS POINT  LGT RAIN  63  52  68 S8        30.15S
WAUPACA        CLOUDY    67  54  61 S13G20    30.16S
WAUTOMA        CLOUDY    60  59  97 S7        30.17S FOG
WISC RAPIDS    RAIN      59  56  89 S10       30.15F FOG
CAMP DOUGLAS   LGT RAIN  59  59 100 E13       30.10F
$$

WIZ011>013-019>022-031-037>040-048>050-241800-
NORTHEAST WISCONSIN

CITY           SKY/WX    TMP DP  RH WIND       PRES   REMARKS
ANTIGO         CLOUDY    69  50  49 S12       30.13F
SHAWANO        CLOUDY    71  50  47 SW7       30.14S
OCONTO         CLOUDY    69  51  53 S6        30.12S
STURGEON BAY   CLOUDY    63  45  51 SE7       30.16S
GREEN BAY      CLOUDY    71  52  50 S16       30.15R
MANITOWOC      CLOUDY    69  52  54 SW16G28   30.17S
APPLETON       CLOUDY    64  50  59 S14G23    30.16R
CLINTONVILLE   DRIZZLE   68  52  56 SW10G16   30.14S
OSHKOSH        LGT RAIN  61  55  81 SW12      30.17S
$$

WIZ032>034-041-042-053>061-241800-
SOUTHWEST WISCONSIN

CITY           SKY/WX    TMP DP  RH WIND       PRES   REMARKS
LA CROSSE      LGT RAIN  61  57  87 E9        30.06F
SPARTA         LGT RAIN  59  56  91 E8        30.10F
VIROQUA        CLOUDY    57  57 100 E13G20    30.07F
BOSCOBEL       RAIN      60  57  89 E6        30.07F FOG
PRAIRIE DU CHI LGT RAIN  59  56  91 E12       30.04F
PLATTEVILLE    CLOUDY    58  56  91 E14       30.05F
$$

WIZ056-057-062-063-064-067-068-241800-
SOUTH CENTRAL WISCONSIN

CITY           SKY/WX    TMP DP  RH WIND       PRES   REMARKS
REEDSBURG      LGT RAIN  57  56  95 CALM      30.11F
BARABOO/DELLS  LGT RAIN  57  54  88 E6        30.12F
LONE ROCK      LGT RAIN  59  57  93 E12       30.10F FOG
MINERAL POINT  LGT RAIN  59  55  88 E10       30.08F
MADISON        LGT RAIN  60  56  86 E9        30.13F
MIDDLETON      CLOUDY    61  58  88 E7        30.13F
WATERTOWN      LGT RAIN  61  61  99 E5        30.15F
MONROE         CLOUDY    61  57  88 E12       30.09F
JANESVILLE     LGT RAIN  64  57  77 E8        30.11F
$$

WIZ051-052-058>065-066-070>072-241800-
SOUTHEAST WISCONSIN

CITY           SKY/WX    TMP DP  RH WIND       PRES   REMARKS
MILWAUKEE      LGT RAIN  64  55  72 S6        30.18S
WAUKESHA       LGT RAIN  61  55  82 CALM      30.19S FOG
MILWAUKEE/TIMM LGT RAIN  64  54  68 CALM      30.19S
RACINE         CLOUDY    65  56  72 NE3       30.18F
BURLINGTON     LGT RAIN  62  56  81 E7        30.14F
KENOSHA        CLOUDY    67  55  65 E7        30.16F
FOND DU LAC    LGT RAIN  62  56  80 S6        30.17F
SHEBOYGAN      LGT RAIN  64  53  67 SE5       30.18F
WEST BEND      LGT RAIN  63  54  72 CALM      30.18F
JUNEAU         RAIN      61  56  83 SE5       30.18S
$$

LSZ147-162-241800-
LAKE SUPERIOR

STATION/POSITION TIME  TEMP    WIND        PRES    WAVE
                       AIR SEA DIR/SP/G            HT/PER
                 (UTC) (F)     (DEG/KT/KT) (MB)    (FT/S)
W MID LAKE BUOY  1650   45 37  200/  8/ 10   N/A     0
DEVILS ISLAND    1700   65      CALM  /  1   N/A
PORT WING        1500   59      CALM  /  2   N/A
SAXON HARBOR     1600   60        CALM       N/A
$$

LMZ867-665-643>646-241800-
LAKE MICHIGAN

STATION/POSITION TIME  TEMP    WIND        PRES    WAVE
                       AIR SEA DIR/SP/G            HT/PER
                 (UTC) (F)     (DEG/KT/KT) (MB)    (FT/S)
CHAMBERS ISLAND  1600   69     340/  2/  3   N/A
N MID LAKE BUOY  1650   43 36  180/  6/  8   N/A     0
NORTHPORT PIER   1600   50     140/  7/ 10   N/A
SISTER BAY       1617   72        CALM       N/A
KEWAUNEE LAKESHO 1700   50     180/ 11/ 13   N/A
SHEBOYGAN LAKESH 1700   64     190/ 10/ 10   N/A
PORT WASHINGTON  1600   53     150/  2/  3   N/A
ATWATER BUOY     1700   51 46  150/  4/  6   N/A
MILWAUKEE LAKESH 1700   52     190/  2/  4   N/A
S MID LAKE BUOY  1650   47 38  120/  4/  4   N/A     0
KENOSHA   LAKESH 1700   53      40/  5/  5   N/A
$$

TC  - TEMPERATURE IN CELSIUS
VSB - VISIBILITY IN STATUTE MILES
WCI - WIND CHILL INDEX
HX  - HEAT INDEX



USA.gov is the U.S. government's official web portal to all federal, state and local government web resources and services.